Printer-friendly version

IAU Minor Planet Center

Minor Planet Center

MPEC 2000-E57: 2000 EW70

The following Minor Planet Electronic Circular may be linked-to from your own Web pages, but must not otherwise be redistributed electronically.


Read MPEC 2000-E56 Read MPEC 2000-E58


M.P.E.C. 2000-E57                                Issued 2000 Mar. 13, 20:01 UT

     The Minor Planet Electronic Circulars contain information on unusual
         minor planets and routine data on comets.  They are published
   on behalf of Commission 20 of the International Astronomical Union by the
          Minor Planet Center, Smithsonian Astrophysical Observatory,
                          Cambridge, MA 02138, U.S.A.

             Prepared using the Tamkin Foundation Computer Network

             BMARSDEN@CFA.HARVARD.EDU or GWILLIAMS@CFA.HARVARD.EDU
          URL http://cfa-www.harvard.edu/iau/mpc.html  ISSN 1523-6714

                                   2000 EW70

Observations:
     K00E70W* C2000 03 09.42849 12 34 45.46 -13 00 11.4          17.5        704
     K00E70W  C2000 03 09.44132 12 34 44.51 -12 59 49.4          18.9        704
     K00E70W  C2000 03 09.45416 12 34 43.57 -12 59 27.1          18.3        704
     K00E70W  C2000 03 10.36682 12 34 03.44 -12 31 53.7          14.7        704
     K00E70W  C2000 03 10.38049 12 34 02.22 -12 31 27.1          17.1        704
     K00E70W  C2000 03 10.38081 12 34 02.20 -12 31 26.2          14.8        704
     K00E70W  C2000 03 10.39310 12 34 01.11 -12 31 02.2          17.2        704
     K00E70W  C2000 03 10.39432 12 34 01.01 -12 30 59.3          14.5        704
     K00E70W  C2000 03 10.40571 12 34 00.01 -12 30 36.9          17.1        704
     K00E70W  C2000 03 10.40868 12 33 59.75 -12 30 30.7          14.6        704
     K00E70W  C2000 03 10.42237 12 33 58.55 -12 30 03.0          14.6        704
     K00E70W  C2000 03 10.42669 12 33 58.18 -12 29 54.6          17.4        704
     K00E70W  C2000 03 10.43929 12 33 57.12 -12 29 28.6          17.8        704
     K00E70W  C2000 03 10.95509 12 33 35.11 -12 11 51.9          16.5 R      620
     K00E70W  C2000 03 10.95925 12 33 34.73 -12 11 43.5          16.5 R      620
     K00E70W  C2000 03 10.96423 12 33 34.29 -12 11 32.8          16.5 R      620
     K00E70W  C2000 03 10.96898 12 33 33.81 -12 11 23.4          16.6 R      620
     K00E70W  C2000 03 10.98507 12 33 30.72 -12 10 58.9          16.6        461
     K00E70W  C2000 03 10.98645 12 33 30.59 -12 10 56.8                      461
     K00E70W  C2000 03 10.98767 12 33 30.48 -12 10 53.7                      461
     K00E70W  C2000 03 11.33890 12 33 09.45 -11 57 36.2          16.8 R      858
     K00E70W  C2000 03 11.34171 12 33 09.18 -11 57 30.0          16.6 R      858
     K00E70W  C2000 03 11.34506 12 33 08.82 -11 57 22.3          16.5 R      858
     K00E70W  C2000 03 11.37002 12 33 07.69 -11 56 23.5                      670
     K00E70W  C2000 03 11.43069 12 33 01.39 -11 54 02.2                      670
     K00E70W  C2000 03 11.48863 12 32 55.67 -11 51 43.2                      670
     K00E70W  C2000 03 11.90290 12 32 35.62 -11 35 11.0                      046
     K00E70W  C2000 03 11.90437 12 32 35.46 -11 35 06.4                      046
     K00E70W  C2000 03 11.90556 12 32 35.39 -11 35 03.9                      046
     K00E70W  C2000 03 11.90687 12 32 35.25 -11 35 00.9          16.2 R      046
     K00E70W  C2000 03 12.26449 12 32 09.69 -11 19 10.4          16.8 R      858
     K00E70W  C2000 03 12.26781 12 32 09.35 -11 19 02.0          16.5 R      858
     K00E70W  C2000 03 12.27022 12 32 09.08 -11 18 55.8          16.5 R      858
     K00E70W  C2000 03 12.36826 12 31 59.12 -11 14 30.3                      670
     K00E70W  C2000 03 12.39517 12 31 54.56 -11 13 13.9          16.9        704
     K00E70W  C2000 03 12.39530 12 31 54.54 -11 13 13.3          16.7        704
     K00E70W  C2000 03 12.40789 12 31 53.06 -11 12 38.3          17.2        704
     K00E70W  C2000 03 12.40802 12 31 53.07 -11 12 37.9          17.0        704
     K00E70W  C2000 03 12.42059 12 31 51.59 -11 12 02.4          17.4        704
     K00E70W  C2000 03 12.42073 12 31 51.60 -11 12 01.7          17.1        704
     K00E70W  C2000 03 12.43330 12 31 50.16 -11 11 26.2          17.3        704
     K00E70W  C2000 03 12.43343 12 31 50.14 -11 11 25.7          17.3        704
     K00E70W  C2000 03 12.44637 12 31 48.66 -11 10 49.0          17.1        704
     K00E70W  C2000 03 12.44650 12 31 48.64 -11 10 48.3          16.8        704
     K00E70W  C2000 03 12.50883 12 31 42.96 -11 07 52.9                      670
     K00E70W  C2000 03 13.32396 12 30 37.88 -10 26 47.7          17.0 R      850
     K00E70W  C2000 03 13.34861 12 30 34.57 -10 25 26.1          17.1 R      850
     K00E70W  C2000 03 13.36707 12 30 32.11 -10 24 24.5          17.1 R      850

Observer details:
046 Klet.  Observers J. Ticha, M. Tichy.  0.57-m f/5.2 reflector + CCD.
461 JATE Asteroid Survey, Piszkesteto Stn. (Konkoly).  Observers K. Sarneczky,
    L. Kiss, K. Sziladi.  0.60-m Schmidt + CCD.
620 Observatorio Astronomico de Mallorca.  Observers A. Lopez, R. Pacheco.
    0.30-m f/3.3 Schmidt-Cassegrain + CCD.
670 Camarillo.  Observer J. E. Rogers.  0.30-m f/6.7 Helin Telescope + CCD.
704 Lincoln Laboratory ETS, New Mexico.  Observers M. Blythe, F. Shelly,
    M. Bezpalko, M. Elowitz, R. Huber.  Measurers J. Stuart, H. Viggh,
    R. Sayer, J. B. Evans.  1.0-m f/2.15 reflector + CCD.
850 Cordell-Lorenz Observatory, Sewanee.  Observer D. T. Durig.  0.3-m f/5.75
    Schmidt-Cassegrain + CCD.
858 Tebbutt Observatory, Edgewood.  Observer F. B. Zoltowski.  0.3-m f/3.3
    Schmidt-Cassegrain + CCD.

Orbital elements:
2000 EW70                                                            PHA 0.009
Epoch 2000 Feb. 26.0 TT = JDT 2451600.5                 Williams
M 245.53542              (2000.0)            P               Q
n   1.08770567     Peri.  125.46904     +0.55768963     +0.83004538
a   0.9364008      Node   178.42003     -0.78915843     +0.53119725
e   0.3215141      Incl.    5.48355     -0.25731547     +0.16986511
P   0.91           H   21.4           G   0.15
From 48 observations 2000 Mar. 9-13.

Ephemeris:
2000 EW70                a,e,i = 0.94, 0.32, 5                   q = 0.6353
Date    TT    R. A. (2000) Decl.     Delta      r     Elong.  Phase     V
2000 03 07    12 36.14   -13 55.6    0.104    1.085   151.5    25.9    17.8
2000 03 08    12 35.67   -13 34.9    0.098    1.081   152.8    24.9    17.7
2000 03 09    12 35.09   -13 10.7    0.092    1.076   154.1    23.8    17.5
2000 03 10    12 34.37   -12 42.3    0.086    1.072   155.5    22.6    17.3
2000 03 11    12 33.49   -12 08.9    0.080    1.068   156.9    21.4    17.1
2000 03 12    12 32.43   -11 29.4    0.074    1.063   158.5    20.0    16.9
2000 03 13    12 31.14   -10 42.4    0.068    1.058   160.2    18.5    16.6
2000 03 14    12 29.57   -09 45.9    0.062    1.054   162.1    16.9    16.4
2000 03 15    12 27.66   -08 37.2    0.057    1.049   164.1    15.0    16.1
2000 03 16    12 25.30   -07 12.5    0.051    1.044   166.4    12.9    15.8
2000 03 17    12 22.33   -05 25.9    0.045    1.039   169.1    10.4    15.4
2000 03 18    12 18.52   -03 08.7    0.040    1.035   172.1     7.6    15.0
2000 03 19    12 13.50   -00 07.1    0.034    1.030   175.4     4.5    14.5
2000 03 20    12 06.58   +04 01.8    0.029    1.025   175.6     4.2    14.1
2000 03 21    11 56.54   +09 57.4    0.024    1.020   169.7    10.1    14.0
2000 03 22    11 40.76   +18 46.2    0.019    1.015   159.6    20.0    13.9
2000 03 23    11 12.79   +32 03.4    0.016    1.010   144.2    35.2    13.9
2000 03 24    10 13.35   +50 09.8    0.014    1.004   122.3    57.0    14.1
2000 03 25    07 45.76   +65 35.8    0.014    0.999    97.3    82.0    15.0
2000 03 26    04 26.31   +64 56.4    0.016    0.994    76.2   102.9    16.2
2000 03 27    02 52.39   +56 51.0    0.020    0.989    61.7   117.3    17.5
2000 03 28    02 12.61   +49 56.8    0.025    0.983    51.9   127.0    18.7
2000 03 29    01 51.91   +44 54.3    0.030    0.978    45.1   133.7    19.8
2000 03 30    01 39.39   +41 12.8    0.035    0.972    40.1   138.6    20.7
2000 03 31    01 31.03   +38 26.0    0.040    0.967    36.2   142.3    21.5
2000 04 01    01 25.07   +36 16.5    0.046    0.961    33.2   145.3    22.2
2000 04 02    01 20.59   +34 33.1    0.051    0.956    30.6   147.8    22.9
2000 04 03    01 17.11   +33 08.6    0.057    0.950    28.5   149.8    23.5
2000 04 04    01 14.32   +31 57.9    0.063    0.945    26.7   151.6    24.0
2000 04 05    01 12.04   +30 57.8    0.069    0.939    25.1   153.1    24.5
2000 04 06    01 10.14   +30 05.8    0.074    0.933    23.7   154.5    25.0

Gareth V. Williams           (C) Copyright 2000 MPC           M.P.E.C. 2000-E57

Read MPEC 2000-E56 Read MPEC 2000-E58


Our Web policy. Index to the CBAT/MPC/ICQ pages.


Valid HTML 4.01!